STARLINK-2236, 48582

Orbit data source: Space-Track

STARLINK-2236, 48582 is a payload satellite owned by SpaceX/Seattle (US) in LEO that was launched on Sat, 15 May 2021 UTC via an FALCON 9 launch vehicle from the Air Force Eastern Test Range (AFETR). Payload-class satellites include a variety of spacecraft equipped with specific instruments for various scientific and technological missions. These include communications satellites like Starlink; space stations such as the ISS; scientific satellites like the Hubble; Earth observation satellites from companies like Planet Labs, Umbra, and HawkEye 360; GPS; miniature CubeSats for education and research; and military/defense satellites.

Loading next visibility...
Identifier
48582, 2021-041AF
Orbit
LEO
Country
Flag of USUS
Related business
Manufacturer
SpaceX/Seattle
Mission
Operational Commercial Communications
Bus & Motor
STARLINK, Unknown motor
Mass
260 kg wet, ~248 kg dry
Launch date (UTC)
2021-05-15 (5 years ago)
Launch vehicle
FALCON 9
Launch site
Air Force Eastern Test Range (AFETR)
Object type
Payload
Rocket body
Debris
Shape & HBR
Box + 1 Pan, 10.1 m
Radar Cross Section
13.562 m², Large (>1 m²)

Expand to show TLE details & history
Last TLE update: 1 day ago

TLE from 1 day ago
0 STARLINK-2236
1 48582U 21041AF  25348.76712412  .00002176  00000-0  16500-3 0  9998
2 48582  53.0554 118.0115 0001223  82.2433 277.8695 15.06381182252893
Epoch: 2025-12-14T18:24Z
TLE epoch observation values (Epoch: 2025-12-14T18:24:39.523Z)
Latitude
-0.00003°
Longitude
118.17148°
Altitude
548.033 km
Speed
7.589 km/s
True Right ascension
07h 52m 02s
True Declination
0° 00' 00"
Sunlit
Object was in full shadow at epoch
Visualization orbit readout
Latitude
Unknown
Longitude
Unknown
Altitude
Unknown
Speed
Unknown
Apparent Right ascension
Unknown
Apparent Declination
Unknown
Sunlit
N/A
Visualization observer readout
Local Sidereal Time
17:23:09
Azimuth
Unknown
Elevation
Unknown
Doppler factor
Unknown
Orbital elements
Apogee altitude
548.387 km
Perigee altitude
546.693 km
Semi-major axis
6,925.677 km
Eccentricity
0.00012
Inclination
53.0554°
RAAN
118.0115°
Arg. of periapsis
82.2433°
True anomaly
277.85562°
Mean anomaly
277.8695°
Eccentric anomaly
277.86256°
Mean motion
3.76574 °/min
Orbital period
95.6 mins
BSTAR
0.000165
Loading maneuver chart data...
Computing Atmospheric mass density...
Loading historical data...
Loading historical data...
Loading historical data...
Loading historical data...
Loading historical data...
Loading historical data...
Loading historical data...

Documentation

Showing up to 5 results
|